Fargo, ND

1:41 AM CST on February 10, 2016 (GMT -0600)
Hector International

Weather History for KFAR - October, 2013

Change the Weather History Date:

Saturday, October 12, 2013

  Actual Average Record
Temperature  
Mean Temperature 47 °F 48 °F  
Max Temperature 56 °F 58 °F 84 °F (1956)
Min Temperature 37 °F 37 °F 13 °F (1919)
Degree Days  
Heating Degree Days 18 18  
Month to date heating degree days 124 184  
Since 1 July heating degree days 249 454  
Cooling Degree Days 0 0  
Month to date cooling degree days 0 0  
Year to date cooling degree days 699 548  
Moisture  
Dew Point 42 °F    
Average Humidity 72    
Maximum Humidity 93    
Minimum Humidity 50    
Precipitation  
Precipitation 0.17 in 0.07 in 1.23 in (2008)
Month to date precipitation 1.94 0.95  
Year to date precipitation 28.25 19.58  
Snow  
Snow 0.00 in 0.00 in 0.60 in (2006)
Month to date snowfall 0.0 0.1  
Since 1 July snowfall 0.0 0.1  
Since 1 September snowfall 0.0 0.1  
Snow Depth 0.00 in    
Sea Level Pressure  
Sea Level Pressure 29.78 in    
Wind  
Wind Speed 15 mph (West)    
Max Wind Speed 25 mph    
Max Gust Speed 32 mph    
Visibility 7 miles    
Events Rain    
T = Trace of Precipitation, MM = Missing Value Source: NWS Daily Summary

Daily Weather History Graph

Daily Weather History Graph

Search for Another Location

Airport or City:

Trip Planner

Search our weather history database for the weather conditions in past years. The results will help you decide how hot, cold, wet, or windy it might be!

Date:

Astronomy

Oct. 12, 2013 Rise Set
Actual Time 7:41 AM CDT 6:45 PM CDT
Civil Twilight 7:10 AM CDT 7:15 PM CDT
Nautical Twilight 6:35 AM CDT 7:50 PM CDT
Astronomical Twilight 6:00 AM CDT 8:25 PM CDT
Moon 3:16 PM CDT (10/12) 12:22 AM CDT (10/12)
Length of Visible Light 12h 04m
Length of Day
11h 03m
First Quarter, 59% of the Moon is Illuminated
Oct 12
First Quarter
Oct 18
Full
Oct 26
Last Quarter
Nov 3
New
Nov 9
First Quarter

Hourly Weather History & Observations

Time (CDT) Temp. Windchill Dew Point Humidity Pressure Visibility Wind Dir Wind Speed Gust Speed Precip Events Conditions
12:53 AM 53.1 °F - 46.0 °F 77% 29.45 in 10.0 mi South 20.7 mph 26.5 mph N/A   Overcast
1:53 AM 53.1 °F - 46.0 °F 77% 29.47 in 10.0 mi SSW 21.9 mph 27.6 mph N/A   Overcast
2:53 AM 53.1 °F - 45.0 °F 74% 29.49 in 10.0 mi SSW 21.9 mph 27.6 mph N/A   Overcast
3:53 AM 52.0 °F - 45.0 °F 77% 29.51 in 10.0 mi SW 17.3 mph 26.5 mph N/A   Overcast
4:27 AM 51.8 °F - 46.4 °F 82% 29.53 in 10.0 mi SW 18.4 mph 26.5 mph N/A   Overcast
4:53 AM 52.0 °F - 46.0 °F 80% 29.55 in 9.0 mi SW 18.4 mph 25.3 mph N/A   Overcast
5:53 AM 50.0 °F - 46.0 °F 86% 29.58 in 4.0 mi WSW 17.3 mph - N/A   Overcast
6:53 AM 50.0 °F - 46.0 °F 86% 29.61 in 2.5 mi WSW 15.0 mph - 0.00 in Rain Light Rain
7:06 AM 50.0 °F - 46.4 °F 87% 29.61 in 4.0 mi West 16.1 mph 23.0 mph 0.00 in Rain Light Rain
7:20 AM 48.2 °F - 44.6 °F 87% 29.62 in 9.0 mi West 16.1 mph 25.3 mph 0.00 in   Overcast
7:35 AM 48.2 °F - 44.6 °F 87% 29.64 in 3.0 mi WSW 12.7 mph 27.6 mph 0.00 in Rain Light Rain
7:50 AM 48.2 °F - 44.6 °F 87% 29.65 in 2.5 mi West 16.1 mph - 0.00 in Rain Light Rain
7:53 AM 48.0 °F - 45.0 °F 89% 29.66 in 2.5 mi West 19.6 mph 24.2 mph 0.00 in Rain Light Rain
8:08 AM 48.2 °F - 44.6 °F 87% 29.66 in 2.0 mi West 15.0 mph 23.0 mph 0.02 in Rain Light Rain
8:18 AM 48.2 °F - 44.6 °F 87% 29.67 in 1.8 mi West 16.1 mph 24.2 mph 0.03 in Rain Light Rain
8:23 AM 48.2 °F - 44.6 °F 87% 29.67 in 2.0 mi West 18.4 mph 24.2 mph 0.03 in Rain Light Rain
8:53 AM 46.9 °F - 44.1 °F 90% 29.70 in 3.0 mi West 21.9 mph 27.6 mph 0.05 in Rain Light Rain
9:13 AM 46.4 °F 39.2 °F 44.6 °F 93% 29.70 in 2.5 mi West 18.4 mph 27.6 mph 0.01 in Rain Light Rain
9:19 AM 46.4 °F 38.7 °F 44.6 °F 93% 29.71 in 3.0 mi West 20.7 mph - 0.01 in Rain Light Rain
9:29 AM 46.4 °F 38.7 °F 42.8 °F 87% 29.72 in 6.0 mi West 20.7 mph 29.9 mph 0.01 in Rain Light Rain
9:44 AM 46.4 °F 38.7 °F 42.8 °F 87% 29.73 in 7.0 mi WNW 20.7 mph 29.9 mph 0.01 in Rain Light Rain
9:53 AM 46.9 °F - 43.0 °F 86% 29.75 in 6.0 mi West 20.7 mph 28.8 mph 0.01 in Rain Light Rain
10:24 AM 48.2 °F - 42.8 °F 82% 29.75 in 6.0 mi West 23.0 mph - 0.03 in Rain Light Rain
10:53 AM 46.9 °F - 43.0 °F 86% 29.79 in 6.0 mi West 18.4 mph - 0.05 in Rain Light Rain
11:53 AM 46.9 °F - 42.1 °F 83% 29.83 in 8.0 mi WNW 24.2 mph 32.2 mph 0.00 in Rain Light Rain
12:09 PM 46.4 °F 38.7 °F 42.8 °F 87% 29.82 in 6.0 mi WNW 20.7 mph 26.5 mph 0.00 in Rain Light Rain
12:53 PM 46.9 °F - 43.0 °F 86% 29.87 in 6.0 mi West 16.1 mph 26.5 mph 0.05 in Rain Light Rain
1:53 PM 48.9 °F - 42.1 °F 77% 29.90 in 10.0 mi West 19.6 mph 26.5 mph 0.00 in Rain Light Rain
2:11 PM 50.0 °F - 42.8 °F 76% 29.89 in 10.0 mi WNW 23.0 mph 29.9 mph 0.00 in   Overcast
2:23 PM 50.0 °F - 41.0 °F 71% 29.90 in 10.0 mi WNW 17.3 mph 29.9 mph 0.00 in Rain Light Rain
2:53 PM 50.0 °F - 42.1 °F 74% 29.93 in 10.0 mi WNW 12.7 mph - 0.00 in   Overcast
3:53 PM 53.1 °F - 43.0 °F 69% 29.95 in 10.0 mi WNW 9.2 mph - 0.01 in   Overcast
4:53 PM 55.0 °F - 37.9 °F 53% 29.98 in 10.0 mi NW 16.1 mph 24.2 mph N/A   Mostly Cloudy
5:53 PM 54.0 °F - 35.1 °F 49% 30.02 in 10.0 mi WNW 18.4 mph - N/A   Clear
6:53 PM 52.0 °F - 34.0 °F 50% 30.05 in 10.0 mi WNW 15.0 mph - N/A   Mostly Cloudy
7:53 PM 48.0 °F - 34.0 °F 58% 30.09 in 10.0 mi WNW 9.2 mph - N/A   Partly Cloudy
8:53 PM 45.0 °F 41.2 °F 34.0 °F 65% 30.12 in 10.0 mi West 6.9 mph - N/A   Scattered Clouds
9:53 PM 43.0 °F 38.2 °F 34.0 °F 71% 30.16 in 10.0 mi West 8.1 mph - N/A   Clear
10:53 PM 41.0 °F 36.4 °F 33.1 °F 73% 30.18 in 10.0 mi WSW 6.9 mph - N/A   Clear
11:53 PM 39.0 °F 34.0 °F 33.1 °F 79% 30.21 in 10.0 mi West 6.9 mph - N/A   Clear